Regional Weather Roundup
Issued by NWS

Home | Current Version | Previous Version | Graphics & Text | Print | Product List | Glossary On
Versions: 1 2 3 4 5 6 7 8 9 10 11 12 13 14 15 16 17 18 19 20 21 22 23 24 25 26 27 28 29 30 31 32 33 34 35 36 37 38 39 40 41 42 43 44 45 46 47 48 49 50
000
ASUS43 KTOP 140059
RWRKS

WEATHER ROUNDUP FOR KANSAS
NATIONAL WEATHER SERVICE GOODLAND KS
700 PM CST WED DEC 13 2017

NOTE:  "FAIR" INDICATES FEW OR NO CLOUDS BELOW 12,000 FEET WITH NO
SIGNIFICANT WEATHER AND/OR OBSTRUCTIONS TO VISIBILITY.

KSZ001>006-013>018-027>032-041>047-140200-
NORTHWEST KANSAS

CITY           SKY/WX    TMP DP  RH WIND       PRES   REMARKS
GOODLAND       CLOUDY    41  14  33 N7        29.99R
HAYS           CLEAR     40  15  36 N10       29.99R WCI  33
HILL CITY      CLOUDY    41  18  39 NW3       30.00R
RUSSELL        CLOUDY    41  19  41 NW8       29.97R
$$

KSZ061>065-074>080-084>089-140200-
SOUTHWEST KANSAS

CITY           SKY/WX    TMP DP  RH WIND       PRES   REMARKS
DODGE CITY     CLEAR     42  15  33 N7        29.98R
GARDEN CITY    CLEAR     44  16  32 N13       29.99R
GREAT BEND     CLEAR     45  15  30 N13       29.96R
LIBERAL        CLEAR     39  14  36 NW5       29.99R
$$

KSZ066>073-081>083-090>101-140200-
SOUTHEAST KANSAS

CITY           SKY/WX    TMP DP  RH WIND       PRES   REMARKS
CHANUTE        CLEAR     49  25  39 NW9       29.88R
COFFEYVILLE    CLEAR     49  26  41 NW8       29.87R
HUTCHINSON     CLEAR     46  23  40 N9        29.92R
MEDICINE LODGE   N/A     47  23  38 N6        29.93R
NEWTON         CLEAR     43  22  43 N9        29.92R
PARSONS        CLEAR     45  25  45 NW7       29.88R
WICHITA INTL   PTCLDY    51  24  34 N9        29.91R
WICHITA JABRA  CLEAR     43  24  47 N9        29.90S
WICHITA MCCONL CLEAR     49  21  34 N8        29.90R
WINFIELD       CLEAR     45  23  42 N8        29.91R
$$

KSZ007>012-019>026-033>040-048>060-102>105-140200-
NORTHEAST KANSAS

CITY           SKY/WX    TMP DP  RH WIND       PRES   REMARKS
CONCORDIA      CLEAR     43  25  49 NW8       29.94R
EMPORIA        CLOUDY    44  23  43 NW6       29.89R
LAWRENCE       CLEAR     40  26  57 NW8       29.87R
MANHATTAN      CLEAR     48  26  42 N6        29.92R
OLATHE IND     CLEAR     47  28  47 NW9       29.87R
OLATHE EXE     CLEAR     47  28  47 N9        29.85R
SALINA         CLEAR     43  23  45 NW9       29.94R
TOPEKA BILLARD CLEAR     46  28  49 NW8       29.89R
TOPEKA FORBES  CLEAR     41  27  57 NW10      29.88R
$$




USA.gov is the U.S. government's official web portal to all federal, state and local government web resources and services.